Home   Weather   Hangzhou   Past weeks

Flag for China Past Weather in Hangzhou, Zhejiang, China — Yesterday and Last 2 Weeks

Now
45 °F

Passing clouds.


Feels Like: 43 °F
Forecast: 30 / 54 °F
Wind: 3 mph from East

Location: Hangzhou Airport

Current Time: Feb 24, 2017 at 6:59:54 pm

Latest Report: Feb 24, 2017 at 6:00 pm


Visibility: 4 mi

Pressure: 30.33 "Hg

Humidity: 57%

Dew Point: 30 °F

Location of HangzhouLocation

Past Weather in Hangzhou — Graph

°F

Hangzhou Temperature Yesterday

Maximum temperature yesterday: 45 °F (at 3:30 pm)
Minimum temperature yesterday: 39 °F (at 12:00 am)
Average temperature yesterday: 41 °F

High & Low Weather Summary for the Past Weeks

 TemperatureHumidityPressure
High73 °F (Feb 19, 2:30 pm)100% (Feb 14, 5:00 am)30.60 "Hg (Feb 14, 5:00 am)
Low30 °F (Feb 12, 2:30 am)17% (Feb 11, 2:00 pm)29.83 "Hg (Feb 19, 3:00 pm)
Average47 °F63%30.30 "Hg
* Reported Feb 9 6:00 pm — Feb 24 6:00 pm, Hangzhou, Weather by CustomWeather, © 2017

Note: Actual official high and low records may vary slightly from our data, if they occured in-between our weather recording intervals... More about our weather records

Advertising

Hangzhou Weather History for the Previous 24 Hours

Scroll right to see more
 ConditionsComfort  
Time TempWeatherWind HumidityBarometerVisibility
6:00 pm
Fri, Feb 24
45 °FPassing clouds.3 mph57%30.33 "Hg4 mi
5:30 pm46 °FScattered clouds.3 mph46%30.33 "Hg4 mi
5:00 pm48 °FPassing clouds.6 mph43%30.33 "Hg4 mi
4:30 pm48 °FPassing clouds.3 mph43%30.33 "Hg4 mi
4:00 pm48 °FPassing clouds.1 mph43%30.33 "Hg4 mi
3:30 pm48 °FPassing clouds.8 mph46%30.33 "Hg4 mi
3:00 pm50 °FPassing clouds.8 mph40%30.33 "Hg4 mi
2:30 pm48 °FPassing clouds.8 mph43%30.33 "Hg4 mi
2:00 pm50 °FPassing clouds.6 mph43%30.36 "Hg5 mi
1:30 pm48 °FPassing clouds.3 mph43%30.36 "Hg5 mi
1:00 pm50 °FPassing clouds.3 mph40%30.36 "Hg5 mi
12:30 pm46 °FPassing clouds.3 mph46%30.39 "Hg5 mi
12:00 pm48 °FPassing clouds.3 mph46%30.39 "Hg5 mi
11:30 am48 °FPassing clouds.6 mph54%30.42 "Hg5 mi
11:00 am46 °FPassing clouds.3 mph53%30.42 "Hg5 mi
10:30 am45 °FPassing clouds.3 mph57%30.45 "HgN/A
10:00 am45 °FScattered clouds.6 mph57%30.45 "HgN/A
9:30 am43 °FScattered clouds.3 mph61%30.42 "HgN/A
9:00 am43 °FScattered clouds.3 mph57%30.45 "HgN/A
8:30 am41 °FScattered clouds.3 mph61%30.45 "HgN/A
8:00 am39 °FScattered clouds.3 mph65%30.42 "HgN/A
7:30 am39 °FSunny.6 mph65%30.42 "Hg10 mi
7:00 am39 °FSunny.8 mph65%30.42 "Hg10 mi
6:30 am39 °FPassing clouds.6 mph70%30.39 "HgN/A
6:00 am39 °FClear.3 mph70%30.39 "Hg10 mi
5:30 am39 °FPassing clouds.3 mph70%30.39 "Hg5 mi
5:00 am39 °FPassing clouds.6 mph75%30.36 "Hg4 mi
4:30 am41 °FPassing clouds.3 mph70%30.39 "Hg3 mi
4:00 am41 °FPassing clouds.3 mph70%30.39 "Hg3 mi
3:30 am41 °FPassing clouds.6 mph66%30.36 "Hg3 mi
3:00 am41 °FPassing clouds.3 mph66%30.39 "Hg3 mi
2:30 am41 °FPassing clouds.3 mph66%30.39 "Hg3 mi
2:00 am41 °FPassing clouds.3 mph61%30.39 "Hg3 mi
1:30 am41 °FPassing clouds.3 mph61%30.39 "Hg3 mi
1:00 am41 °FPassing clouds.3 mph66%30.42 "Hg3 mi
12:30 am41 °FPassing clouds.6 mph66%30.39 "Hg3 mi
12:00 am41 °FPassing clouds.6 mph66%30.39 "Hg3 mi
11:30 pm
Thu, Feb 23
41 °FPassing clouds.6 mph66%30.42 "Hg3 mi
11:00 pm41 °FPassing clouds.3 mph66%30.42 "Hg3 mi
10:30 pm41 °FHaze.3 mph66%30.39 "Hg3 mi
10:00 pm41 °FPassing clouds.3 mph66%30.39 "Hg3 mi
9:30 pm41 °FPassing clouds.3 mph66%30.39 "Hg2 mi
9:00 pm41 °FPassing clouds.3 mph66%30.39 "Hg2 mi
8:30 pm41 °FHaze.3 mph66%30.39 "Hg2 mi
8:00 pm41 °FHaze.3 mph66%30.39 "Hg3 mi
7:30 pm41 °FHaze.6 mph70%30.39 "Hg3 mi
7:00 pm41 °FHaze.3 mph70%30.36 "Hg3 mi
6:30 pm41 °FHaze.6 mph66%30.36 "Hg3 mi
6:00 pm43 °FHaze.8 mph61%30.36 "Hg3 mi
Weather by CustomWeather, © 2017

See weather overviewHow to use our weather pages